Home   Weather   Kumanovo   Past weeks

Flag for Macedonia, Republic of Past Weather in Kumanovo, Macedonia, Republic of — Yesterday and Last 2 Weeks

72 °F


Feels Like: 76 °F
Forecast: 47 / 63 °F
Wind: 1 mph from Southwest

Location: Skopje-Petrovec

Current Time: Oct 24, 2016 at 4:21:25 PM

Latest Report: Oct 24, 2016 at 4:00 PM

Visibility: 10 mi

Pressure: 30.27 "Hg

Humidity: 57%

Dew Point: 55 °F

Location of KumanovoLocation

Past Weather in Kumanovo — Graph


Kumanovo Temperature Yesterday

Maximum temperature yesterday: 68 °F (at 3:00 PM)
Minimum temperature yesterday: 55 °F (at 12:00 AM)
Average temperature yesterday: 59 °F

High & Low Weather Summary for the Past Weeks

High70 °F (Oct 14, 3:00 PM)100% (Oct 10, 8:00 PM)30.36 "Hg (Oct 10, 8:00 PM)
Low36 °F (Oct 13, 4:30 AM)40% (Oct 12, 5:00 PM)29.68 "Hg (Oct 12, 3:00 AM)
Average55 °F82%30.11 "Hg
* Reported Oct 9 3:00 PM — Oct 24 3:00 PM, Kumanovo, Weather by CustomWeather, © 2016

Note: Actual official high and low records may vary slightly from our data, if they occured in-between our weather recording intervals... More about our weather records


Kumanovo Weather History for the Previous 24 Hours

Scroll right to see more
Time TempWeatherWind HumidityBarometerVisibility
3:00 PM
Mon, Oct 24
70 °FPassing clouds.2 mph60%30.27 "HgN/A
2:30 PM70 °FPassing clouds.2 mph60%30.27 "HgN/A
2:00 PM68 °FPassing clouds.2 mph64%30.30 "HgN/A
1:30 PM68 °FPassing clouds.1 mph64%30.30 "HgN/A
1:00 PM66 °FPassing clouds.1 mph68%30.30 "HgN/A
12:30 PM66 °FPassing clouds.2 mph68%30.33 "HgN/A
12:00 PM64 °FPassing clouds.1 mph73%30.33 "HgN/A
11:30 AM63 °FSunny.1 mph77%30.33 "Hg10 mi
11:00 AM61 °FPassing clouds.2 mph83%30.33 "HgN/A
10:30 AM59 °FPassing clouds.1 mph88%30.33 "HgN/A
10:00 AM57 °FOvercast.No wind94%30.33 "HgN/A
9:30 AM55 °FMore clouds than sun.No wind94%30.33 "HgN/A
9:00 AM55 °FOvercast.No wind94%30.30 "Hg6 mi
8:30 AM55 °FMostly cloudy.1 mph94%30.30 "Hg4 mi
8:00 AM54 °FMostly cloudy.2 mph100%30.30 "Hg5 mi
7:30 AM54 °FOvercast.1 mph100%30.27 "HgN/A
7:00 AM54 °FMostly cloudy.1 mph94%30.27 "HgN/A
6:30 AM54 °FMostly cloudy.1 mph94%30.27 "HgN/A
6:00 AM52 °FMostly cloudy.1 mph100%30.27 "HgN/A
5:30 AM52 °FPartly cloudy.1 mph100%30.27 "HgN/A
5:00 AM54 °FPartly cloudy.2 mph94%30.27 "HgN/A
4:30 AM54 °FPartly cloudy.No wind94%30.24 "HgN/A
4:00 AM54 °FPartly cloudy.2 mph94%30.24 "HgN/A
3:30 AM54 °FPartly cloudy.1 mph94%30.24 "HgN/A
3:00 AM54 °FPassing clouds.1 mph94%30.24 "HgN/A
2:00 AM55 °FPartly cloudy.No wind94%30.24 "HgN/A
1:30 AM55 °FPartly cloudy.2 mph94%30.24 "HgN/A
1:00 AM55 °FPartly cloudy.No wind94%30.21 "HgN/A
12:30 AM55 °FPassing clouds.1 mph94%30.21 "HgN/A
12:00 AM54 °FPassing clouds.1 mph94%30.21 "HgN/A
11:30 PM
Sun, Oct 23
55 °FPassing clouds.No wind94%30.21 "HgN/A
11:00 PM55 °FPartly cloudy.No wind94%30.21 "HgN/A
10:30 PM57 °FMostly cloudy.1 mph94%30.21 "HgN/A
10:00 PM57 °FMostly cloudy.1 mph94%30.21 "HgN/A
9:30 PM57 °FPartly cloudy.1 mph94%30.18 "HgN/A
9:00 PM55 °FPassing clouds.No wind94%30.18 "HgN/A
8:30 PM57 °FPassing clouds.No wind88%30.18 "HgN/A
8:00 PM57 °FPassing clouds.2 mph94%30.15 "HgN/A
7:30 PM59 °FPassing clouds.1 mph88%30.15 "HgN/A
7:00 PM61 °FPartly cloudy.1 mph83%30.15 "HgN/A
6:30 PM61 °FPartly cloudy.1 mph83%30.15 "HgN/A
6:00 PM63 °FPartly cloudy.2 mph77%30.15 "HgN/A
5:30 PM64 °FBroken clouds.2 mph78%30.12 "HgN/A
5:00 PM64 °FBroken clouds.1 mph78%30.12 "HgN/A
4:30 PM66 °FBroken clouds.2 mph73%30.12 "HgN/A
4:00 PM66 °FBroken clouds.No wind64%30.12 "HgN/A
Weather by CustomWeather, © 2016

See weather overviewHow to use our weather pages